| time (UTC) | temp C | wind direction | speed KPH | gust KPH | rain 1hr cm | rain 24hr cm | rain mn cm | humidity % | barometer mb |
| 20260504021729 | 16 | 272 | 1.6 | 14.5 | 0.00 | 0.00 | 0.00 | 70 | 1012.7 |
| 20260504021231 | 16 | 250 | 4.8 | 9.7 | 0.00 | 0.00 | 0.00 | 69 | 1012.9 |
| 20260504020731 | 16 | 225 | 0.0 | 11.3 | 0.00 | 0.00 | 0.00 | 68 | 1013.0 |
| 20260504020230 | 16 | 215 | 0.0 | 12.9 | 0.00 | 0.00 | 0.00 | 69 | 1012.9 |
| 20260504015729 | 17 | 319 | 4.8 | 12.9 | 0.00 | 0.00 | 0.00 | 69 | 1012.8 |
| 20260504015231 | 17 | 310 | 6.4 | 12.9 | 0.00 | 0.00 | 0.00 | 69 | 1012.7 |
| 20260504014731 | 17 | 275 | 6.4 | 14.5 | 0.00 | 0.00 | 0.00 | 69 | 1012.8 |
| 20260504014451 | 17 | 317 | 6.4 | 16.1 | 0.00 | 0.00 | 0.00 | 69 | 1012.6 |
| 20260504013729 | 17 | 273 | 4.8 | 16.1 | 0.00 | 0.00 | 0.00 | 68 | 1012.6 |
| 20260504013458 | 17 | 307 | 6.4 | 14.5 | 0.00 | 0.00 | 0.00 | 68 | 1012.7 |
| 20260504012730 | 17 | 249 | 4.8 | 12.9 | 0.00 | 0.00 | 0.00 | 69 | 1012.8 |
| 20260504012228 | 17 | 273 | 3.2 | 14.5 | 0.00 | 0.00 | 0.00 | 69 | 1012.7 |
| 20260504011728 | 17 | 222 | 3.2 | 16.1 | 0.00 | 0.00 | 0.00 | 69 | 1012.6 |
| 20260504011229 | 17 | 309 | 4.8 | 16.1 | 0.00 | 0.00 | 0.00 | 69 | 1012.5 |
| 20260504010729 | 17 | 281 | 6.4 | 16.1 | 0.00 | 0.00 | 0.00 | 68 | 1012.4 |
| 20260504010229 | 17 | 251 | 11.3 | 16.1 | 0.00 | 0.00 | 0.00 | 69 | 1012.4 |
| 20260504005727 | 17 | 239 | 6.4 | 16.1 | 0.00 | 0.00 | 0.00 | 68 | 1012.4 |
| 20260504005229 | 17 | 331 | 8.0 | 14.5 | 0.00 | 0.00 | 0.00 | 67 | 1012.4 |
| 20260504004730 | 17 | 347 | 11.3 | 19.3 | 0.00 | 0.00 | 0.00 | 67 | 1012.2 |
| 20260504004443 | 17 | 273 | 9.7 | 19.3 | 0.00 | 0.00 | 0.00 | 68 | 1012.2 |
| 20260504003727 | 17 | 286 | 6.4 | 16.1 | 0.00 | 0.00 | 0.00 | 68 | 1012.0 |
| 20260504003229 | 17 | 264 | 8.0 | 14.5 | 0.00 | 0.00 | 0.00 | 68 | 1012.1 |
| 20260504002227 | 17 | 282 | 8.0 | 20.9 | 0.00 | 0.00 | 0.00 | 68 | 1012.1 |
| 20260504001450 | 17 | 260 | 6.4 | 16.1 | 0.00 | 0.00 | 0.00 | 68 | 1012.0 |
| 20260504000728 | 17 | 304 | 8.0 | 19.3 | 0.00 | 0.00 | 0.00 | 68 | 1012.0 |
| 20260504000226 | 17 | 297 | 6.4 | 19.3 | 0.00 | 0.00 | 0.00 | 67 | 1011.9 |
| 20260503235727 | 17 | 276 | 4.8 | 14.5 | 0.00 | 0.00 | 0.00 | 67 | 1011.9 |
| 20260503235227 | 17 | 323 | 12.9 | 14.5 | 0.00 | 0.00 | 0.00 | 66 | 1011.7 |
| 20260503234227 | 18 | 256 | 6.4 | 20.9 | 0.00 | 0.00 | 0.00 | 64 | 1011.9 |
| 20260503233726 | 18 | 302 | 6.4 | 16.1 | 0.00 | 0.00 | 0.00 | 64 | 1011.6 |
| 20260503233227 | 18 | 315 | 8.0 | 16.1 | 0.00 | 0.00 | 0.00 | 64 | 1011.5 |
| 20260503232727 | 18 | 262 | 6.4 | 19.3 | 0.00 | 0.00 | 0.00 | 63 | 1011.5 |
| 20260503232225 | 18 | 257 | 6.4 | 19.3 | 0.00 | 0.00 | 0.00 | 62 | 1011.7 |
| 20260503231725 | 18 | 306 | 6.4 | 16.1 | 0.00 | 0.00 | 0.00 | 61 | 1011.6 |
| 20260503231227 | 18 | 300 | 11.3 | 16.1 | 0.00 | 0.00 | 0.00 | 61 | 1011.6 |
| 20260503230726 | 18 | 296 | 9.7 | 16.1 | 0.00 | 0.00 | 0.00 | 61 | 1011.8 |
| 20260503230225 | 18 | 273 | 3.2 | 20.9 | 0.00 | 0.00 | 0.00 | 61 | 1011.8 |
| 20260503225726 | 18 | 338 | 14.5 | 20.9 | 0.00 | 0.00 | 0.00 | 61 | 1011.7 |
| 20260503225226 | 18 | 267 | 8.0 | 16.1 | 0.00 | 0.00 | 0.00 | 59 | 1011.9 |
| 20260503224948 | 18 | 325 | 9.7 | 19.3 | 0.00 | 0.00 | 0.00 | 61 | 1012.0 |
| 20260503224225 | 18 | 254 | 3.2 | 19.3 | 0.00 | 0.00 | 0.00 | 59 | 1012.0 |
| 20260503223726 | 18 | 262 | 3.2 | 12.9 | 0.00 | 0.00 | 0.00 | 58 | 1012.0 |
| 20260503223224 | 18 | 354 | 8.0 | 14.5 | 0.00 | 0.00 | 0.00 | 58 | 1012.0 |
| 20260503222725 | 18 | 291 | 6.4 | 24.1 | 0.00 | 0.00 | 0.00 | 58 | 1011.9 |
| 20260503222225 | 18 | 325 | 9.7 | 24.1 | 0.00 | 0.00 | 0.00 | 59 | 1011.9 |
| 20260503221725 | 18 | 349 | 11.3 | 16.1 | 0.00 | 0.00 | 0.00 | 59 | 1012.0 |
| 20260503221224 | 18 | 270 | 6.4 | 14.5 | 0.00 | 0.00 | 0.00 | 60 | 1012.1 |
| 20260503220725 | 18 | 351 | 9.7 | 16.1 | 0.00 | 0.00 | 0.00 | 60 | 1012.0 |
| 20260503220225 | 18 | 273 | 6.4 | 20.9 | 0.00 | 0.00 | 0.00 | 58 | 1012.1 |
| 20260503215724 | 18 | 291 | 8.0 | 22.5 | 0.00 | 0.00 | 0.00 | 58 | 1012.1 |
| 20260503215224 | 18 | 282 | 9.7 | 22.5 | 0.00 | 0.00 | 0.00 | 58 | 1012.3 |
| 20260503214724 | 18 | 327 | 14.5 | 16.1 | 0.00 | 0.00 | 0.00 | 58 | 1012.4 |
| 20260503214225 | 18 | 281 | 6.4 | 14.5 | 0.00 | 0.00 | 0.00 | 58 | 1012.4 |
| 20260503213723 | 18 | 340 | 8.0 | 16.1 | 0.00 | 0.00 | 0.00 | 60 | 1012.4 |
| 20260503213444 | 18 | 285 | 6.4 | 19.3 | 0.00 | 0.00 | 0.00 | 60 | 1012.4 |
| 20260503212724 | 18 | 334 | 4.8 | 19.3 | 0.00 | 0.00 | 0.00 | 58 | 1012.4 |
| 20260503212448 | 18 | 285 | 4.8 | 22.5 | 0.00 | 0.00 | 0.00 | 58 | 1012.4 |
| 20260503211723 | 18 | 263 | 6.4 | 22.5 | 0.00 | 0.00 | 0.00 | 60 | 1012.5 |
| 20260503211223 | 18 | 296 | 11.3 | 19.3 | 0.00 | 0.00 | 0.00 | 59 | 1012.6 |
| 20260503210724 | 18 | 286 | 4.8 | 19.3 | 0.00 | 0.00 | 0.00 | 61 | 1012.6 |
| 20260503210224 | 18 | 240 | 3.2 | 20.9 | 0.00 | 0.00 | 0.00 | 62 | 1012.6 |
| 20260503205940 | 18 | 334 | 4.8 | 20.9 | 0.00 | 0.00 | 0.00 | 62 | 1012.6 |
| 20260503205222 | 18 | 291 | 8.0 | 19.3 | 0.00 | 0.00 | 0.00 | 62 | 1012.7 |
| 20260503204941 | 18 | 319 | 9.7 | 19.3 | 0.00 | 0.00 | 0.00 | 63 | 1012.6 |
| 20260503204448 | 18 | 351 | 6.4 | 19.3 | 0.00 | 0.00 | 0.00 | 65 | 1012.6 |
| 20260503203722 | 18 | 291 | 12.9 | 20.9 | 0.00 | 0.00 | 0.00 | 62 | 1012.5 |
| 20260503203448 | 18 | 255 | 9.7 | 25.7 | 0.00 | 0.00 | 0.00 | 63 | 1012.6 |
| 20260503202723 | 18 | 325 | 8.0 | 25.7 | 0.00 | 0.00 | 0.00 | 63 | 1012.6 |
| 20260503202222 | 18 | 326 | 19.3 | 24.1 | 0.00 | 0.00 | 0.00 | 63 | 1012.6 |
| 20260503201721 | 18 | 304 | 6.4 | 20.9 | 0.00 | 0.00 | 0.00 | 64 | 1012.6 |
| 20260503201221 | 18 | 260 | 6.4 | 20.9 | 0.00 | 0.00 | 0.00 | 63 | 1012.7 |
| 20260503200947 | 18 | 329 | 8.0 | 20.9 | 0.00 | 0.00 | 0.00 | 62 | 1012.7 |
| 20260503200224 | 18 | 358 | 6.4 | 19.3 | 0.00 | 0.00 | 0.00 | 63 | 1012.7 |
| 20260503195723 | 18 | 277 | 8.0 | 22.5 | 0.00 | 0.00 | 0.00 | 64 | 1012.9 |
| 20260503195221 | 18 | 346 | 3.2 | 22.5 | 0.00 | 0.00 | 0.00 | 66 | 1012.9 |
| 20260503194721 | 18 | 343 | 11.3 | 19.3 | 0.00 | 0.00 | 0.00 | 68 | 1012.9 |
| 20260503194222 | 18 | 273 | 8.0 | 25.7 | 0.00 | 0.00 | 0.00 | 67 | 1012.9 |
| 20260503193946 | 17 | 241 | 9.7 | 25.7 | 0.00 | 0.00 | 0.00 | 69 | 1013.0 |
| 20260503193221 | 18 | 315 | 16.1 | 20.9 | 0.00 | 0.00 | 0.00 | 68 | 1012.9 |
| 20260503192945 | 17 | 346 | 6.4 | 22.5 | 0.00 | 0.00 | 0.00 | 69 | 1013.0 |
| 20260503192221 | 18 | 333 | 16.1 | 24.1 | 0.00 | 0.00 | 0.00 | 68 | 1013.1 |
| 20260503191721 | 18 | 343 | 14.5 | 24.1 | 0.00 | 0.00 | 0.00 | 70 | 1013.0 |
| 20260503191220 | 18 | 284 | 9.7 | 24.1 | 0.00 | 0.00 | 0.00 | 69 | 1013.0 |
| 20260503190720 | 18 | 359 | 14.5 | 27.4 | 0.00 | 0.00 | 0.00 | 68 | 1012.9 |
| 20260503190221 | 18 | 275 | 11.3 | 27.4 | 0.00 | 0.00 | 0.00 | 68 | 1012.9 |
| 20260503185720 | 18 | 296 | 6.4 | 20.9 | 0.00 | 0.00 | 0.00 | 69 | 1012.9 |
| 20260503185220 | 18 | 334 | 6.4 | 20.9 | 0.00 | 0.00 | 0.00 | 68 | 1012.9 |
| 20260503184721 | 18 | 246 | 8.0 | 16.1 | 0.00 | 0.00 | 0.00 | 68 | 1012.9 |
| 20260503184448 | 18 | 318 | 8.0 | 20.9 | 0.00 | 0.00 | 0.00 | 68 | 1012.9 |
| 20260503183944 | 18 | 313 | 9.7 | 20.9 | 0.00 | 0.00 | 0.00 | 68 | 1013.0 |
| 20260503183219 | 18 | 347 | 12.9 | 24.1 | 0.00 | 0.00 | 0.00 | 68 | 1013.0 |
| 20260503182937 | 18 | 337 | 12.9 | 24.1 | 0.00 | 0.00 | 0.00 | 69 | 1012.9 |
| 20260503182220 | 18 | 354 | 6.4 | 22.5 | 0.00 | 0.00 | 0.00 | 68 | 1013.0 |
| 20260503181946 | 18 | 345 | 8.0 | 19.3 | 0.00 | 0.00 | 0.00 | 67 | 1012.9 |
| 20260503181219 | 18 | 336 | 8.0 | 19.3 | 0.00 | 0.00 | 0.00 | 68 | 1012.9 |
| 20260503180718 | 18 | 337 | 14.5 | 16.1 | 0.00 | 0.00 | 0.00 | 68 | 1012.9 |
| 20260503180440 | 18 | 224 | 3.2 | 14.5 | 0.00 | 0.00 | 0.00 | 68 | 1012.8 |
| 20260503175720 | 18 | 261 | 3.2 | 14.5 | 0.00 | 0.00 | 0.00 | 67 | 1012.9 |
| 20260503175218 | 19 | 337 | 4.8 | 11.3 | 0.00 | 0.00 | 0.00 | 68 | 1012.9 |
| 20260503174719 | 18 | 332 | 6.4 | 11.3 | 0.00 | 0.00 | 0.00 | 67 | 1012.8 |
| 20260503174218 | 18 | 246 | 6.4 | 11.3 | 0.00 | 0.00 | 0.00 | 66 | 1012.9 |
| 20260503173720 | 18 | 271 | 1.6 | 8.0 | 0.00 | 0.00 | 0.00 | 66 | 1012.9 |
| 20260503173219 | 18 | 270 | 1.6 | 11.3 | 0.00 | 0.00 | 0.00 | 68 | 1012.9 |
| 20260503172719 | 18 | 261 | 0.0 | 12.9 | 0.00 | 0.00 | 0.00 | 67 | 1012.9 |
| 20260503172218 | 18 | 327 | 9.7 | 14.5 | 0.00 | 0.00 | 0.00 | 68 | 1012.9 |
| 20260503171720 | 18 | 260 | 4.8 | 14.5 | 0.00 | 0.00 | 0.00 | 70 | 1012.8 |
| 20260503171217 | 17 | 343 | 6.4 | 14.5 | 0.00 | 0.00 | 0.00 | 71 | 1012.8 |
| 20260503170717 | 17 | 350 | 9.7 | 14.5 | 0.00 | 0.00 | 0.00 | 71 | 1012.9 |
| 20260503170217 | 17 | 247 | 3.2 | 11.3 | 0.00 | 0.00 | 0.00 | 71 | 1012.9 |
| 20260503160215 | 17 | 289 | 1.6 | 9.7 | 0.00 | 0.00 | 0.00 | 71 | 1012.6 |
| 20260503150715 | 16 | 333 | 6.4 | 12.9 | 0.00 | 0.00 | 0.00 | 75 | 1012.6 |
| 20260503150215 | 16 | 2 | 9.7 | 12.9 | 0.00 | 0.00 | 0.00 | 75 | 1012.7 |
| 20260503140215 | 15 | 321 | 6.4 | 12.9 | 0.00 | 0.00 | 0.00 | 79 | 1012.3 |
| 20260503131214 | 15 | 292 | 8.0 | 14.5 | 0.00 | 0.00 | 0.00 | 80 | 1011.7 |
| 20260503130937 | 15 | 1 | 11.3 | 14.5 | 0.00 | 0.00 | 0.00 | 80 | 1011.6 |
| 20260503130212 | 15 | 285 | 8.0 | 14.5 | 0.00 | 0.00 | 0.00 | 81 | 1011.5 |
| 20260503120211 | 15 | 345 | 8.0 | 14.5 | 0.00 | 0.00 | 0.00 | 82 | 1011.1 |
| 20260503110711 | 15 | 338 | 11.3 | 16.1 | 0.00 | 0.00 | 0.00 | 84 | 1011.0 |
| 20260503110212 | 15 | 329 | 8.0 | 16.1 | 0.00 | 0.00 | 0.00 | 84 | 1011.0 |
| 20260503090350 | 16 | 285 | 11.3 | 12.9 | 0.00 | 0.00 | 0.00 | 83 | 1011.2 |
| 20260503081350 | 16 | 235 | 0.0 | 1.6 | 0.00 | 0.00 | 0.00 | 84 | 1012.0 |
| 20260503080850 | 16 | 250 | 0.0 | 1.6 | 0.00 | 0.00 | 0.00 | 84 | 1012.1 |
| 20260503080350 | 16 | 264 | 0.0 | 0.0 | 0.00 | 0.00 | 0.00 | 84 | 1012.0 |
| 20260503072850 | 15 | 246 | 0.0 | 1.6 | 0.00 | 0.00 | 0.00 | 85 | 1012.3 |
| 20260503072348 | 15 | 240 | 0.0 | 3.2 | 0.00 | 0.00 | 0.00 | 85 | 1012.3 |
| 20260503071850 | 15 | 267 | 1.6 | 4.8 | 0.00 | 0.00 | 0.00 | 85 | 1012.5 |
| 20260503071350 | 15 | 273 | 3.2 | 4.8 | 0.00 | 0.00 | 0.00 | 85 | 1012.5 |
| 20260503070850 | 15 | 249 | 0.0 | 3.2 | 0.00 | 0.00 | 0.00 | 85 | 1012.4 |
| 20260503070347 | 15 | 247 | 1.6 | 3.2 | 0.00 | 0.00 | 0.00 | 85 | 1012.4 |
| 20260503054849 | 15 | 242 | 1.6 | 8.0 | 0.00 | 0.00 | 0.00 | 87 | 1012.3 |
| 20260503054347 | 15 | 259 | 0.0 | 8.0 | 0.00 | 0.00 | 0.00 | 87 | 1012.3 |
| 20260503053847 | 15 | 255 | 1.6 | 8.0 | 0.00 | 0.00 | 0.00 | 87 | 1012.5 |
| 20260503053346 | 15 | 293 | 1.6 | 8.0 | 0.00 | 0.00 | 0.00 | 87 | 1012.4 |
| 20260503052847 | 15 | 277 | 3.2 | 9.7 | 0.00 | 0.00 | 0.00 | 87 | 1012.3 |
| 20260503052348 | 15 | 263 | 1.6 | 11.3 | 0.00 | 0.00 | 0.00 | 87 | 1012.2 |
| 20260503051845 | 15 | 260 | 1.6 | 12.9 | 0.00 | 0.00 | 0.00 | 87 | 1012.2 |
| 20260503051346 | 15 | 334 | 8.0 | 12.9 | 0.00 | 0.00 | 0.00 | 87 | 1012.2 |
| 20260503051111 | 15 | 277 | 3.2 | 11.3 | 0.00 | 0.00 | 0.00 | 87 | 1012.1 |
| 20260503050346 | 15 | 300 | 6.4 | 11.3 | 0.00 | 0.00 | 0.00 | 87 | 1012.0 |
| 20260503045845 | 15 | 307 | 3.2 | 11.3 | 0.00 | 0.00 | 0.00 | 87 | 1011.8 |
| 20260503045346 | 15 | 250 | 1.6 | 11.3 | 0.00 | 0.00 | 0.00 | 87 | 1011.6 |
| 20260503044846 | 15 | 272 | 3.2 | 12.9 | 0.00 | 0.00 | 0.00 | 87 | 1011.5 |
| 20260503044346 | 15 | 293 | 4.8 | 12.9 | 0.00 | 0.00 | 0.00 | 87 | 1011.4 |
| 20260503043844 | 15 | 270 | 3.2 | 11.3 | 0.00 | 0.00 | 0.00 | 87 | 1011.3 |
| 20260503043603 | 15 | 262 | 1.6 | 11.3 | 0.00 | 0.00 | 0.00 | 87 | 1011.3 |
| 20260503042845 | 15 | 299 | 6.4 | 11.3 | 0.00 | 0.00 | 0.00 | 87 | 1011.1 |
| 20260503042346 | 15 | 259 | 3.2 | 9.7 | 0.00 | 0.00 | 0.00 | 87 | 1011.1 |
| 20260503041844 | 15 | 297 | 3.2 | 9.7 | 0.00 | 0.00 | 0.00 | 87 | 1011.1 |
| 20260503041344 | 15 | 286 | 3.2 | 9.7 | 0.00 | 0.00 | 0.00 | 86 | 1011.1 |
| 20260503041112 | 15 | 302 | 8.0 | 12.9 | 0.00 | 0.00 | 0.00 | 86 | 1010.9 |
| 20260503040611 | 15 | 278 | 8.0 | 12.9 | 0.00 | 0.00 | 0.00 | 86 | 1010.8 |
| 20260503040106 | 15 | 285 | 6.4 | 11.3 | 0.00 | 0.00 | 0.00 | 86 | 1010.7 |
| 20260503035344 | 15 | 325 | 9.7 | 11.3 | 0.00 | 0.00 | 0.00 | 86 | 1010.5 |
| 20260503035108 | 15 | 325 | 6.4 | 11.3 | 0.00 | 0.00 | 0.00 | 86 | 1010.3 |
| 20260503034345 | 15 | 309 | 6.4 | 12.9 | 0.00 | 0.00 | 0.00 | 86 | 1010.4 |
| 20260503034107 | 15 | 14 | 9.7 | 12.9 | 0.00 | 0.00 | 0.00 | 86 | 1010.3 |
| 20260503033600 | 15 | 325 | 8.0 | 12.9 | 0.00 | 0.00 | 0.00 | 86 | 1010.3 |
| 20260503032843 | 15 | 320 | 11.3 | 12.9 | 0.00 | 0.00 | 0.00 | 86 | 1010.3 |
| 20260503032345 | 15 | 351 | 6.4 | 14.5 | 0.00 | 0.00 | 0.00 | 85 | 1010.2 |
| 20260503031843 | 15 | 327 | 8.0 | 19.3 | 0.00 | 0.00 | 0.00 | 85 | 1010.1 |
| 20260503031343 | 15 | 348 | 14.5 | 19.3 | 0.00 | 0.00 | 0.00 | 85 | 1009.9 |
| 20260503030842 | 15 | 277 | 11.3 | 16.1 | 0.00 | 0.00 | 0.00 | 85 | 1009.8 |
| 20260503030344 | 15 | 339 | 8.0 | 19.3 | 0.00 | 0.00 | 0.00 | 85 | 1009.8 |
| 20260503025844 | 15 | 308 | 11.3 | 19.3 | 0.00 | 0.00 | 0.00 | 85 | 1009.9 |
| 20260503025342 | 15 | 335 | 14.5 | 16.1 | 0.00 | 0.00 | 0.00 | 85 | 1009.8 |
| 20260503024842 | 15 | 330 | 9.7 | 16.1 | 0.00 | 0.00 | 0.00 | 86 | 1009.8 |
| 20260503024343 | 15 | 277 | 8.0 | 12.9 | 0.00 | 0.00 | 0.00 | 86 | 1010.0 |
| 20260503023842 | 15 | 6 | 3.2 | 16.1 | 0.00 | 0.00 | 0.00 | 86 | 1010.0 |
| 20260503023343 | 15 | 258 | 8.0 | 16.1 | 0.00 | 0.00 | 0.00 | 85 | 1009.9 |
| 20260503023104 | 16 | 316 | 3.2 | 9.7 | 0.00 | 0.00 | 0.00 | 85 | 1009.9 |
| 20260503022344 | 16 | 262 | 3.2 | 14.5 | 0.00 | 0.00 | 0.00 | 85 | 1009.9 |
| 20260503022105 | 16 | 211 | 1.6 | 14.5 | 0.00 | 0.00 | 0.00 | 85 | 1010.0 |